Regional Weather Roundup
Issued by NWS Burlington, VT

Current Version | Previous Version | Text Only | Print | Product List | Glossary Off
Versions: 1 2 3 4 5 6 7 8 9 10 11 12 13 14 15 16 17 18 19 20 21 22 23 24 25 26 27 28 29 30 31 32 33 34 35 36 37 38 39 40 41 42 43 44 45 46 47 48 49 50

534
ASUS41 KBTV 181930
RWRBTV
VERMONT REGIONAL WEATHER ROUNDUP
NATIONAL WEATHER SERVICE BURLINGTON VT
300 PM EDT WED OCT 18 2017

NOTE: "FAIR" INDICATES FEW OR NO CLOUDS BELOW 12,000 FEET WITH NO
SIGNIFICANT WEATHER AND/OR OBSTRUCTIONS TO VISIBILITY.

* THESE REPORTS ARE NOT UNDER NWS QUALITY CONTROL AND/OR DO NOT
  REPORT WEATHER SUCH AS PRECIPITATION AND FOG.

VTZ001>019-182000-
_____VERMONT_____


CITY           SKY/WX    TMP DP  RH WIND       PRES   REMARKS
BURLINGTON     MOSUNNY   68  44  42 S6        30.18F
MONTPELIER     SUNNY     64  38  38 N8        30.24F
MORRISVILLE    SUNNY     66  39  37 NW5       30.21F
ST. JOHNSBURY*   N/A     66  38  35 MISG      30.18F
LYNDONVILLE*   FAIR      63  39  41 SW6       30.22F
MIDDLEBURY*    FAIR      67  41  38 SW6       30.20S
RUTLAND*       SUNNY     66  40  38 CALM      30.22F
SPRINGFIELD    SUNNY     69  30  23 W7        30.21
HIGHGATE*      FAIR      66  48  51 SW5       30.19F
NEWPORT*       FAIR      62  39  42 NW6       30.21S
BENNINGTON     SUNNY     66  43  43 W8        30.24
MT. MANSFIELD*   N/A     52 N/A N/A W14         N/A

_____LAKE CHAMPLAIN_____


CITY           SKY/WX    TMP DP  RH WIND       PRES   REMARKS
COLCHESTER RF*   N/A     61  52  72 S9          N/A

$$

NYZ007-026>031-035-052-083-087-182000-
_____NORTHERN NEW YORK_____


CITY           SKY/WX    TMP DP  RH WIND       PRES   REMARKS
PLATTSBURGH    SUNNY     64  46  52 SE12      30.18F
SARANAC LAKE   SUNNY     66  40  38 SW10      30.19F
MASSENA        SUNNY     69  49  48 SW8       30.18F
OGDENSBURG*    FAIR      70  52  53 S15       30.17F
POTSDAM*       SUNNY     68  50  52 SW13      30.19S
WATERTOWN      SUNNY     65  50  58 SW12      30.21F
FT DRUM        SUNNY     67  49  52 SW14      30.20F
ALBANY         MOSUNNY   69  47  45 E5        30.23F
GLENS FALLS    SUNNY     67  46  47 S9        30.22F

$$
NHZ002-005-011-182000-
_____NEW HAMPSHIRE_____


CITY           SKY/WX    TMP DP  RH WIND       PRES   REMARKS
LEBANON        SUNNY     71  39  31 CALM      30.19F
KEENE          SUNNY     71  42  35 VRB6      30.22F
MT WASHINGTON  MOSUNNY   36  32  87 NW36        N/A  WCI  21
PLYMOUTH       FAIR      69  36  30 W6        30.19F
WHITEFIELD     SUNNY     65  39  38 NW8       30.21S

$$

_____REGIONAL QUEBEC LOCATIONS_____


CITY           SKY/WX    TMP DP  RH WIND       PRES   REMARKS
MONTREAL       MOSUNNY   64  48  55 S7        30.17F
QUEBEC CITY    MOSUNNY   55  32  41 SW16      30.16R
SHERBROOKE     SUNNY     63  36  36 W7        30.18F

_____REGIONAL ONTARIO LOCATIONS_____


CITY           SKY/WX    TMP DP  RH WIND       PRES   REMARKS
OTTAWA         MOSUNNY   68  46  45 S14       30.15F

______KEY______
VSB  - VISIBILITY IN MILES
WCI  - WIND CHILL INDEX
HX   - HEAT INDEX
$$
NNNN




USA.gov is the U.S. government's official web portal to all federal, state and local government web resources and services.